Location: Fours
(44.3167°N, 6.7000°E)
Time: 19:00:16
(UTC+00:00)

Cosmos 2227 - Visible Passes

Search period start: 04 December 2023 00:00
Search period end: 14 December 2023 00:00
Orbit: 833 x 862 km, 71.0° (Epoch: 04 December)

Date Brightness Start Highest point End Pass type
(mag) Time Alt. Az. Time Alt. Az. Time Alt. Az.
04 Dec 5.0 16:32:24 10° SSE 16:37:24 32° ESE 16:42:26 10° NE visible
04 Dec 5.3 18:15:59 10° SW 18:21:25 42° WNW 18:25:08 19° N visible
05 Dec 5.1 16:19:06 10° SSE 16:24:05 31° ESE 16:29:04 10° NE visible
05 Dec 5.3 18:02:37 10° SW 18:08:05 43° WNW 18:12:32 15° N visible
06 Dec 5.2 17:49:15 10° SW 17:54:44 44° WNW 17:59:50 12° NNE visible
07 Dec 5.2 17:35:54 10° SW 17:41:23 45° WNW 17:46:54 10° NNE visible
07 Dec 6.9 19:27:00 10° NW 19:27:10 10° NW 19:27:18 10° NNW visible
08 Dec 5.2 17:22:32 10° SW 17:28:02 46° WNW 17:33:35 10° NNE visible
08 Dec 6.9 19:13:08 10° NW 19:13:47 10° NW 19:14:26 10° NNW visible
09 Dec 5.2 17:09:11 10° SW 17:14:42 46° WNW 17:20:14 10° NNE visible
09 Dec 6.9 18:59:31 10° NW 19:00:25 10° NW 19:01:20 10° NNW visible
10 Dec 5.2 16:55:49 10° SW 17:01:21 47° WNW 17:06:55 10° NNE visible
10 Dec 6.9 18:45:56 10° NW 18:47:04 10° NW 18:48:10 10° NNW visible
11 Dec 5.1 16:42:27 10° SW 16:48:00 48° WNW 16:53:35 10° NNE visible
11 Dec 6.8 18:32:24 10° NW 18:33:41 11° NW 18:34:59 10° NNW visible
12 Dec 5.1 16:29:06 10° SW 16:34:39 49° WNW 16:40:14 10° NNE visible
12 Dec 6.8 18:18:54 10° NW 18:20:19 11° NW 18:21:45 10° NNW visible
13 Dec 6.8 18:05:24 10° NW 18:06:58 11° NW 18:08:31 10° NNW visible
